Weather in Novotolucheevo

Russia / Voronezh Oblast     50°32′02″N   40°58′55″E
temp.,
°C
wind,
m/s
gust,
m/s
humid.,
%
clouds,
%
prec.,
mm/h
press.,
hPa
HPBL,
m
29 june, wed
wed2900:00+18ne512820 0.0 1017340
03:00+14ne498023 0.0 1018184
06:00+15ene47810 0.0 1019200
09:00+20ene46660 0.0 1019917
12:00+22ne55460 0.0 10191742
15:00+22nne44441 0.0 10191983
18:00+21nne345442 0.0 10181572
21:00+16ne35736 0.0 101973
30 june, thu
thu3000:00+13e34692 0.0 101956
03:00+12e2270100 0.0 101910
06:00+14ese1168100 0.0 101956
09:00+19nne2256100 0.0 1018616
12:00+21nnw2349100 0.0 10181805
15:00+20nnw2360100 0.0 1017588
18:00+19nw356880 0.0 1016245
21:00+17wnw237196 0.0 101658
1 july, fri
fri100:00+17nw3667100 0.0 1016133
03:00+14nnw35820 0.0 101573
06:00+15nnw38801 0.0 1015222
09:00+20nnw57593 0.0 1015690
12:00+22nnw784612 0.0 10142348
15:00+22n894316 0.0 10142536
18:00+19nne79571 0.0 10161508
21:00+12nne35661 0.0 101867
2 july, sat
sat200:00+10n33761 0.0 101833
03:00+10nnw47740 0.0 1019112
06:00+11nnw512730 0.0 1019335
09:00+17nnw811543 0.0 10181283
12:00+20n79455 0.0 10181710
15:00+21nnw78444 0.0 10171896
18:00+20nnw58555 0.0 10161530
21:00+15nw33735 0.0 101735
3 july, sun
sun300:00+15wnw227151 0.0 101629
03:00+13wnw348280 0.0 101570
06:00+16w37862 0.2 1014225
09:00+21nw357611 1.0 1013643
12:00+26nnw57507 0.0 10132002
15:00+27nnw78452 0.0 10132318
18:00+24nnw58590 0.0 10131028
21:00+18nnw35791 0.0 101467